Weather observations for the past three days for
North Adams Harriman-and-West Airport
Metric (Imperial)
Date Time (edt) Wind (kph) Vis. (km) Weather Sky Cond. Temperature (ºC) Relative Humidity Wind Chill (°C) Heat Index (°C) Pressure Precipitation (cm)
Air Dwpt 6 hour altimeter (cm) sea level (mb) 1 hr 3 hr 6 hr
Max. Min.
16 08:52 Calm 16.09 Fair CLR 15.6 8.9 65% 76.94 1025.6
16 07:52 Calm 16.09 Fair CLR 12.8 7.2 12.8 6.7 69% 76.94 1025.8
16 06:52 Calm 16.09 Fair CLR 10 7.2 83% 76.94 1025.9
16 05:52 Calm 16.09 Fair CLR 6.7 5 89% 76.89 1025.0
16 04:52 Calm 16.09 Fair CLR 7.2 5 86% 76.81 1024.0
16 03:52 Calm 16.09 Fair CLR 7.8 6.1 89% 76.73 1023.1
16 02:52 Calm 16.09 Fair CLR 8.9 6.7 86% 76.73 1022.9
16 01:52 Calm 16.09 Fair CLR 10 7.8 21.7 9.4 86% 76.71 1022.6
16 00:52 Calm 16.09 Fair CLR 10.6 8.9 89% 76.68 1022.4
15 23:52 Calm 16.09 Fair CLR 12.2 9.4 83% 76.66 1021.9
15 22:52 Calm 16.09 Fair CLR 12.8 10 83% 76.58 1021.0
15 21:52 Calm 16.09 Fair CLR 15 10 72% 76.5 1019.9
15 20:52 Calm 16.09 Fair CLR 16.7 10.6 67% 76.43 1018.7
15 19:52 N 6 16.09 Fair CLR 21.7 8.9 25 21.7 44% 76.35 1017.9
15 18:52 N 7 16.09 Fair CLR 23.3 8.3 38% 76.3 1017.0
15 17:52 W 13 16.09 Fair CLR 24.4 7.8 35% 25 76.28 1016.6
15 16:52 Vrbl 7 16.09 A Few Clouds FEW070 24.4 7.8 35% 25 76.28 1016.7
15 15:52 Vrbl 7 16.09 A Few Clouds FEW070 23.9 7.8 36% 25 76.25 1016.6
15 14:52 Vrbl 11 16.09 Fair CLR 23.9 8.3 37% 25 76.25 1016.5
15 13:52 NW 13 G 30 16.09 Fair CLR 22.8 7.8 22.8 17.8 38% 76.3 1017.0
15 12:52 Vrbl 9 G 31 16.09 Fair CLR 21.7 7.2 39% 76.3 1017.1
15 11:52 Vrbl 9 G 39 16.09 Fair CLR 21.1 6.1 38% 76.3 1017.2
15 10:52 Vrbl 7 16.09 Partly Cloudy SCT050 21.1 8.3 44% 76.28 1016.6
15 09:52 Vrbl 9 16.09 Fair CLR 20 10 53% 76.28 1016.6
15 08:52 Calm 16.09 Fair CLR 18.9 10.6 59% 76.28 1016.6
15 07:52 Vrbl 7 16.09 Fair CLR 17.8 11.7 17.8 12.8 68% 76.25 1016.5
15 06:52 W 9 16.09 Fair CLR 16.1 12.2 78% 76.2 1015.6
15 05:52 Calm 16.09 Fair CLR 13.3 11.7 90% 76.12 1014.7
15 04:52 SW 9 16.09 Fair CLR 13.9 12.2 90% 76.07 1013.9
15 03:52 Calm 16.09 Fair CLR 13.9 12.2 90% 76.02 1013.3
15 02:52 W 6 16.09 A Few Clouds FEW060 15 13.3 90% 75.97 1012.6
15 01:52 Calm 16.09 Overcast OVC055 17.2 13.9 23.9 15.6 81% 75.97 1012.6
15 00:52 Calm 16.09 Fair CLR 16.1 13.3 84% 75.95 1012.3
14 23:52 Calm 16.09 Mostly Cloudy BKN110 17.8 14.4 81% 75.95 1012.3
14 22:52 Calm 16.09 Partly Cloudy SCT110 18.9 14.4 75% 75.9 1011.4
14 21:52 Calm 16.09 Mostly Cloudy BKN080 20 14.4 70% 75.9 1011.6
14 20:52 Calm 16.09 Fair CLR 21.7 14.4 63% 75.82 1010.5
14 19:52 NW 6 16.09 Fair CLR 22.2 14.4 29.4 22.2 61% 75.77 1009.9
14 18:52 W 13 16.09 Fair CLR 25 11.7 43% 26 75.77 1009.8
14 17:52 W 17 16.09 A Few Clouds FEW100 28.3 15 44% 28 75.77 1009.6
14 16:52 NW 13 16.09 Overcast SCT055 BKN075 OVC090 28.9 16.1 46% 29 75.74 1009.4
14 15:52 W 13 16.09 Fair CLR 27.2 15.6 49% 28 75.77 1009.6
14 14:52 W 13 16.09 Mostly Cloudy BKN095 27.8 16.1 49% 28 75.77 1009.8
14 13:52 SW 11 16.09 A Few Clouds FEW029 FEW037 28.3 19.4 28.3 21.7 59% 30 75.82 1010.2 0.2
14 12:52 Vrbl 6 16.09 Mostly Cloudy SCT022 SCT028 BKN100 26.1 19.4 67% 27 75.84 1011.0
14 11:52 Calm 16.09 Partly Cloudy FEW026 SCT085 23.9 20.6 82% 24 75.9 1011.5 0.08
14 10:52 S 6 4.02 Light Rain Fog/Mist FEW028 BKN037 OVC060 22.2 20.6 91% 75.95 1012.1 0.13 0.13
14 09:52 Calm 16.09 Light Rain FEW060 OVC085 23.3 18.9 76% 75.87 1011.1
14 08:52 Calm 16.09 A Few Clouds FEW055 FEW110 22.8 18.3 76% 75.87 1011.0
14 07:52 E 11 16.09 A Few Clouds FEW110 21.7 17.2 22.2 20.6 76% 75.84 1010.8
14 06:52 Vrbl 6 16.09 Mostly Cloudy FEW060 SCT070 BKN085 21.1 17.2 79% 75.84 1010.7
14 05:52 Calm 16.09 A Few Clouds FEW085 20.6 16.7 78% 75.84 1010.6
14 04:52 E 13 16.09 Partly Cloudy SCT110 21.1 16.1 73% 75.79 1010.1
14 03:52 SE 11 16.09 Mostly Cloudy BKN100 21.7 15.6 68% 75.79 1010.1
14 02:52 Vrbl 7 16.09 Fair CLR 21.7 15 66% 75.82 1010.5
14 01:52 Vrbl 6 16.09 Fair CLR 21.1 14.4 28.9 20 66% 75.87 1010.9
14 00:52 Calm 16.09 Fair CLR 21.1 15 68% 75.92 1011.7
13 23:52 Vrbl 6 16.09 Fair CLR 22.2 14.4 61% 75.97 1012.5
13 22:52 Calm 16.09 Fair CLR 23.9 14.4 55% 25 76 1012.7
13 21:52 Calm 16.09 Fair CLR 25 14.4 52% 26 75.97 1012.5
13 20:52 Calm 16.09 Fair CLR 24.4 13.9 52% 26 75.95 1012.2
13 19:52 Vrbl 9 16.09 Fair CLR 28.9 12.8 31.1 28.9 37% 28 75.97 1012.4
13 18:52 S 11 16.09 Fair CLR 30 13.9 37% 29 75.97 1012.5
13 17:52 W 15 16.09 Fair CLR 30 13.3 36% 29 75.97 1012.5
13 16:52 SW 17 16.09 Fair CLR 30.6 12.8 34% 30 75.97 1012.6
13 15:52 Vrbl 7 16.09 Fair CLR 30.6 11.7 31% 29 76.02 1013.2
13 14:52 S 15 16.09 Fair CLR 30.6 11.7 31% 29 76.05 1013.6
13 13:52 Calm 16.09 Fair CLR 29.4 11.7 30 16.7 33% 28 76.07 1014.0
13 12:52 Calm 16.09 Fair CLR 28.9 11.1 33% 28 76.12 1014.7
13 11:52 Calm 16.09 Fair CLR 27.8 12.8 40% 27 76.15 1015.0
13 10:52 Calm 0.80 Fair with Haze CLR 26.1 12.8 44% 26 76.17 1015.4
13 09:52 Calm 16.09 Fair CLR 23.9 12.8 50% 25 76.23 1016.0
Date Time (edt) Wind (kph) Vis. (km) Weather Sky Cond. Air Dwpt Max. Min. Relative Humidity Wind Chill (°C) Heat Index (°C) altimeter (cm) sea level (mb) 1 hr 3 hr 6 hr
6 hour
Temperature (ºC) Pressure Precipitation (cm)